Temperature
-9 -10 -9 -9 -9 -9 -8 -8 -8 -8 -7 -7 -6 -5 -4 -3 -2 -1 -0 0 1 2 3 3 4 4 4 5 5 6 6 6 7 7 7 8 8 7 7 7 7 7 7
-10 -10 -10 -10 -10 -9 -9 -9 -8 -8 -8 -7 -6 -5 -5 -4 -3 -2 -1 -0 0 1 2 2 2 3 3 4 4 5 5 6 6 6 6 7 7 7 7 7 7 7 7
-10 -10 -10 -10 -10 -10 -10 -9 -9 -9 -8 -8 -7 -6 -5 -5 -4 -4 -3 -2 -1 -0 0 1 1 1 2 2 3 4 4 5 5 5 5 6 6 6 6 6 6 6 6
-11 -11 -11 -11 -11 -11 -11 -10 -10 -9 -9 -8 -8 -7 -6 -6 -5 -5 -4 -3 -2 -2 -1 -1 0 0 1 1 2 2 3 4 4 4 5 5 5 6 6 6 6 6 5
-12 -12 -12 -12 -12 -12 -12 -11 -11 -10 -10 -9 -8 -8 -7 -6 -6 -6 -5 -5 -4 -3 -3 -2 -2 -1 -0 0 1 1 2 2 3 3 3 4 4 5 5 5 5 5 5
-13 -13 -13 -13 -13 -13 -13 -12 -12 -11 -10 -10 -9 -9 -8 -7 -6 -6 -7 -6 -6 -5 -5 -4 -3 -3 -2 -1 -1 -0 0 1 1 2 2 2 3 4 4 5 5 5 4
-13 -13 -14 -14 -14 -14 -14 -13 -13 -12 -11 -11 -10 -9 -9 -8 -7 -7 -8 -8 -7 -7 -7 -6 -5 -5 -4 -3 -2 -2 -1 -1 -0 0 1 1 2 2 3 3 4 4 4
-13 -14 -14 -14 -14 -14 -14 -14 -13 -13 -12 -12 -11 -10 -9 -9 -8 -8 -8 -8 -8 -8 -8 -8 -7 -7 -6 -5 -4 -4 -3 -3 -2 -1 -1 -1 -0 1 1 2 3 3 3
-14 -14 -14 -15 -14 -15 -14 -14 -14 -13 -13 -12 -12 -11 -10 -10 -9 -9 -9 -9 -9 -9 -9 -8 -8 -8 -7 -7 -6 -5 -5 -5 -5 -4 -3 -3 -2 -1 -0 1 1 1 1
-14 -14 -14 -15 -15 -15 -15 -14 -14 -14 -13 -13 -13 -12 -12 -11 -10 -9 -9 -9 -9 -9 -9 -9 -9 -8 -8 -8 -7 -7 -6 -6 -6 -6 -5 -5 -4 -3 -3 -1 -1 -0 0
-14 -14 -14 -14 -15 -15 -15 -14 -14 -14 -14 -13 -13 -13 -12 -12 -11 -10 -10 -9 -10 -10 -10 -10 -9 -9 -9 -9 -8 -8 -8 -8 -7 -7 -7 -7 -6 -6 -5 -4 -3 -3 -2
-14 -14 -14 -14 -15 -15 -15 -15 -14 -14 -14 -14 -14 -14 -13 -12 -12 -11 -11 -10 -10 -10 -10 -10 -10 -9 -10 -10 -10 -10 -9 -9 -9 -8 -8 -8 -7 -7 -7 -6 -6 -5 -5
-14 -14 -14 -14 -14 -14 -15 -15 -15 -15 -15 -15 -15 -14 -14 -13 -12 -12 -12 -11 -11 -11 -10 -10 -10 -10 -10 -11 -11 -10 -10 -10 -10 -9 -9 -9 -8 -8 -8 -7 -7 -7 -7
-13 -13 -13 -14 -14 -14 -15 -15 -15 -15 -15 -15 -15 -15 -14 -14 -13 -12 -12 -12 -11 -11 -11 -11 -11 -12 -12 -12 -12 -11 -11 -11 -11 -10 -10 -10 -10 -9 -9 -9 -8 -8 -7
-13 -13 -13 -14 -14 -15 -15 -15 -15 -15 -15 -15 -15 -15 -15 -14 -13 -13 -13 -12 -12 -12 -12 -12 -12 -12 -12 -12 -13 -13 -12 -12 -12 -12 -11 -11 -11 -10 -10 -10 -9 -9 -9
-13 -13 -14 -15 -15 -15 -15 -15 -15 -15 -15 -15 -15 -15 -15 -14 -14 -14 -14 -14 -13 -13 -12 -13 -13 -13 -13 -13 -14 -14 -14 -14 -13 -13 -13 -12 -12 -11 -11 -11 -11 -10 -10
-13 -13 -14 -15 -15 -15 -15 -15 -15 -15 -15 -15 -15 -15 -15 -14 -14 -14 -15 -15 -14 -14 -14 -14 -14 -14 -14 -14 -14 -15 -15 -15 -15 -14 -14 -14 -13 -13 -12 -12 -12 -12 -11
-12 -13 -14 -14 -14 -14 -15 -15 -15 -15 -15 -15 -15 -15 -15 -15 -15 -15 -15 -15 -15 -15 -15 -15 -15 -15 -15 -15 -15 -15 -15 -15 -15 -15 -15 -15 -15 -14 -14 -14 -13 -13 -13
-11 -12 -14 -14 -14 -14 -14 -15 -15 -15 -15 -16 -16 -15 -15 -15 -15 -15 -15 -15 -15 -15 -15 -15 -15 -15 -15 -15 -15 -15 -16 -16 -16 -16 -16 -16 -16 -15 -15 -15 -14 -14 -14
-11 -12 -13 -13 -13 -14 -14 -14 -15 -15 -15 -15 -16 -16 -15 -15 -15 -15 -15 -15 -15 -15 -15 -15 -15 -16 -16 -16 -16 -16 -16 -16 -16 -16 -16 -16 -16 -16 -16 -15 -15 -15 -15
-11 -11 -12 -12 -13 -14 -14 -14 -14 -15 -15 -15 -15 -16 -15 -15 -15 -15 -15 -15 -15 -15 -15 -15 -15 -15 -16 -16 -16 -16 -16 -16 -16 -16 -16 -16 -16 -16 -16 -16 -15 -15 -15
-11 -11 -12 -13 -13 -14 -14 -14 -14 -14 -14 -15 -15 -15 -16 -16 -15 -15 -15 -15 -15 -15 -15 -15 -15 -15 -15 -16 -16 -16 -16 -16 -16 -16 -16 -16 -16 -16 -16 -16 -15 -15 -15
-11 -11 -12 -13 -13 -14 -14 -14 -14 -14 -14 -14 -15 -15 -16 -16 -15 -15 -15 -15 -15 -15 -15 -15 -15 -15 -15 -15 -15 -16 -16 -16 -16 -16 -16 -16 -16 -16 -15 -15 -15 -15 -15
-10 -11 -12 -13 -13 -13 -13 -14 -14 -14 -15 -15 -15 -15 -16 -16 -16 -15 -15 -15 -15 -15 -15 -15 -15 -15 -15 -15 -15 -15 -15 -15 -15 -15 -15 -15 -15 -15 -15 -15 -15 -14 -14
-10 -11 -12 -13 -12 -12 -13 -13 -14 -15 -15 -15 -15 -15 -16 -16 -15 -15 -15 -15 -15 -14 -14 -15 -15 -15 -15 -15 -15 -15 -14 -14 -14 -14 -14 -14 -14 -14 -14 -14 -14 -14 -14
-10 -11 -12 -12 -12 -12 -12 -13 -13 -14 -15 -15 -15 -15 -15 -15 -15 -15 -15 -15 -14 -14 -14 -14 -14 -15 -14 -14 -14 -14 -14 -14 -14 -14 -14 -14 -14 -14 -14 -15 -15 -15 -15
Wind_Speed
17 16 16 16 16 17 16 18 18 19 20 21 21 22 21 20 18 14 11 9 8 6 3 3 3 3 3 3 4 4 3 4 4 2 1 1 3 5 5 6 9 12 15
17 17 16 16 17 17 17 18 18 19 19 19 20 21 21 20 19 17 15 11 7 5 1 2 2 3 3 2 3 4 3 3 4 4 2 2 3 4 5 5 4 8 11
17 17 17 17 17 17 18 18 18 18 19 18 18 19 20 19 18 18 17 15 12 9 5 2 3 4 3 3 4 4 3 3 3 3 2 2 2 3 4 4 4 4 6
17 16 16 17 17 17 17 17 18 18 18 18 17 17 18 18 15 16 17 17 15 13 11 9 7 5 3 3 4 4 3 4 3 3 3 2 2 2 4 5 4 4 4
16 17 17 16 16 16 16 17 17 18 18 17 16 16 17 16 14 13 14 15 15 15 14 13 14 15 12 6 4 4 3 3 3 3 3 2 2 2 3 4 5 6 5
15 16 17 17 17 16 16 16 17 17 17 17 16 15 16 15 21 19 14 12 13 14 14 14 14 16 17 18 18 15 11 5 3 2 2 3 2 1 2 5 6 6 4
14 15 16 16 17 17 17 17 17 16 15 16 15 15 15 19 26 19 17 10 11 12 12 12 11 12 14 11 16 20 19 20 13 5 4 3 3 2 1 4 4 4 4
13 14 14 15 16 16 15 16 15 13 13 12 13 15 15 18 27 23 14 9 8 10 10 10 10 11 11 11 11 12 12 12 13 11 9 8 7 6 4 3 5 8 7
13 13 14 14 15 15 15 15 13 12 11 11 12 13 15 17 25 25 15 6 6 8 9 10 9 9 14 14 10 10 11 12 18 23 22 21 22 19 12 5 5 5 4
13 14 14 13 14 13 14 14 13 12 13 12 12 12 13 14 22 24 18 6 6 7 8 10 13 12 15 15 9 8 10 9 10 12 15 17 16 18 21 12 7 4 4
14 14 13 13 13 11 11 12 13 13 13 12 12 11 11 15 20 23 19 7 5 5 6 7 8 16 18 19 14 9 11 10 9 10 10 11 11 11 11 11 10 7 6
14 14 14 13 12 13 11 11 11 11 11 10 9 11 10 12 17 19 21 15 8 4 4 4 7 18 20 20 15 15 16 12 8 8 9 9 9 9 8 9 12 13 13
14 14 13 14 11 11 10 9 9 9 9 10 9 10 11 11 13 20 20 18 14 5 3 5 11 16 16 14 17 18 14 9 8 8 8 8 7 7 7 7 8 11 13
15 15 14 13 12 9 10 9 9 8 9 11 10 10 10 11 11 10 8 9 10 7 6 10 15 16 14 13 13 11 10 9 8 8 7 6 6 7 7 6 5 4 5
16 15 15 14 11 10 10 9 11 8 11 11 7 7 9 8 13 17 12 10 6 4 6 6 6 7 7 7 8 8 8 8 8 7 6 6 6 7 6 6 5 5 4
16 16 14 14 13 12 12 12 15 15 18 18 15 12 11 13 16 16 17 17 17 15 10 7 7 7 7 6 6 6 6 6 6 6 5 5 5 5 5 5 5 5 5
17 17 15 14 13 14 13 13 12 12 15 15 15 14 13 13 13 14 14 14 15 14 9 7 6 6 5 5 4 4 4 4 4 4 4 4 4 4 4 4 4 4 4
17 18 17 13 13 12 12 12 9 9 9 8 10 13 12 11 10 11 12 10 8 8 6 5 5 5 5 4 4 3 2 2 2 2 2 2 3 3 3 3 3 3 2
16 14 14 12 12 12 12 11 9 9 8 7 6 8 10 9 8 8 8 4 3 4 4 4 4 4 4 4 4 3 2 2 1 1 1 1 1 1 1 2 2 4 2
13 21 20 14 12 12 12 11 10 9 7 6 5 5 5 4 2 2 2 1 2 2 2 3 3 3 3 3 3 3 3 2 2 1 2 2 1 1 2 3 2 2 2
12 15 22 16 12 12 12 11 10 8 7 6 5 6 8 4 3 2 1 1 1 2 2 3 3 3 2 2 2 2 3 3 3 3 3 3 3 3 3 4 4 4 4
11 12 12 13 13 13 13 11 10 8 7 6 3 5 7 2 0 1 1 2 2 2 2 3 3 3 3 3 3 3 4 4 4 4 4 4 4 4 4 4 5 4 5
11 12 13 13 12 18 16 12 11 10 7 4 2 2 2 1 1 1 2 2 3 3 4 3 3 4 6 7 7 5 5 5 6 6 5 5 5 5 5 6 6 6 6
11 13 14 13 13 13 13 13 13 12 10 6 3 1 0 1 1 2 2 2 2 3 5 5 5 6 8 9 10 10 11 12 12 11 10 8 8 7 7 7 8 9 8
12 12 13 12 12 12 12 13 13 12 11 9 7 5 2 1 1 2 2 3 3 3 5 6 7 8 9 11 12 13 15 17 17 14 13 10 10 10 10 10 10 9 9
12 13 12 10 10 10 10 11 11 11 10 9 8 6 4 3 2 3 3 3 3 4 5 7 9 10 11 12 14 16 17 19 18 17 11 7 8 9 9 9 10 10 10
Wind_Direction
340 338 336 336 337 337 336 333 333 332 334 338 339 338 339 341 338 330 315 298 284 270 249 208 181 145 160 154 135 128 125 129 146 160 134 97 123 140 132 135 149 149 153
339 337 336 336 338 339 337 335 335 335 337 340 343 344 346 349 352 350 346 341 327 304 256 152 121 112 113 116 121 121 128 126 135 153 141 112 113 141 136 139 138 149 152
340 338 337 338 339 338 337 336 337 338 338 341 345 346 346 350 1 2 1 0 1 0 8 52 88 105 103 100 103 109 114 113 109 132 135 94 92 105 113 107 117 124 152
340 338 338 338 336 335 337 338 339 340 340 341 344 346 346 346 359 13 10 9 8 10 15 25 38 57 81 93 96 104 113 114 117 120 120 103 93 88 122 130 116 100 100
338 339 338 337 335 336 339 341 340 341 342 340 341 346 348 346 354 24 18 13 13 16 18 22 28 34 45 67 88 81 96 115 126 135 133 121 115 121 146 136 128 111 65
334 336 337 339 340 340 341 343 342 341 341 342 343 345 349 348 355 28 33 19 17 19 20 20 22 26 29 41 57 62 65 73 103 121 133 139 118 79 115 143 140 139 123
331 333 336 338 340 341 344 344 342 340 340 343 344 348 348 346 358 21 34 30 24 23 23 21 22 25 34 36 44 46 45 48 54 71 80 82 93 36 104 145 138 116 119
330 332 335 338 339 340 344 343 340 337 338 340 340 344 346 347 356 11 28 30 27 25 23 22 21 25 42 50 53 54 50 50 55 57 63 61 64 52 44 90 113 103 84
333 334 334 335 338 340 345 341 339 336 337 340 343 346 348 347 351 0 23 20 29 22 17 18 29 33 50 58 57 58 54 44 50 60 60 54 52 51 49 68 98 120 104
333 332 331 332 335 337 341 338 338 340 344 346 345 346 348 346 351 358 17 18 26 23 16 11 26 49 61 66 59 61 62 54 56 56 55 51 47 44 45 42 43 76 97
327 328 330 329 325 333 336 334 336 343 343 344 345 343 344 351 354 356 10 28 27 30 29 16 21 53 63 63 63 70 81 74 64 63 61 54 50 45 41 41 43 51 77
321 323 323 323 322 333 329 327 331 336 339 336 342 346 346 346 351 354 5 16 38 42 40 18 41 60 61 60 57 59 68 68 63 61 59 52 48 44 42 45 56 64 70
318 316 314 315 314 315 318 320 325 329 335 336 345 348 343 343 343 353 3 5 12 29 33 88 82 69 60 53 56 59 56 54 57 60 58 52 47 42 40 47 58 71 68
315 313 313 312 308 305 312 318 320 320 322 327 341 342 336 337 337 347 354 355 1 24 42 61 72 74 70 63 58 55 54 60 62 59 57 50 46 47 44 38 39 50 68
312 311 313 314 307 302 303 302 307 304 308 319 327 326 331 331 341 1 14 9 9 53 82 74 69 67 67 66 65 64 60 56 58 53 52 51 49 49 44 36 37 43 63
315 317 317 317 315 314 310 305 301 308 317 321 322 325 330 338 354 11 18 21 31 50 60 58 58 58 60 61 64 64 62 61 58 58 51 49 49 49 50 48 51 51 60
315 317 317 318 316 313 311 309 308 310 316 321 323 325 330 344 4 17 25 28 36 47 50 46 44 42 43 47 52 58 59 60 59 60 56 42 42 41 45 48 49 48 51
318 318 321 315 314 315 316 315 309 309 314 316 319 322 326 341 4 22 35 40 33 39 38 38 33 30 29 28 29 36 45 48 55 64 61 47 32 26 27 31 30 27 29
323 324 325 327 329 327 325 322 314 308 306 304 304 312 324 335 352 16 40 47 31 25 22 23 20 17 16 15 12 12 12 6 19 27 22 17 14 5 352 346 341 340 9
327 334 342 339 334 329 325 320 315 308 301 293 288 288 298 310 314 333 6 18 24 5 356 353 350 353 356 355 350 351 348 334 329 306 291 286 274 259 266 279 284 288 283
335 337 342 339 332 329 326 324 321 315 305 293 280 278 280 261 239 246 262 294 308 309 312 313 312 313 311 300 295 299 296 290 279 267 266 264 253 246 249 254 261 262 267
339 336 338 338 338 338 342 340 333 324 316 302 283 290 311 349 198 232 249 278 285 279 273 278 284 280 270 262 258 258 260 261 259 252 250 248 244 244 246 247 250 251 253
339 341 343 343 345 351 355 351 349 345 339 327 300 284 293 303 277 260 261 273 284 288 294 286 278 280 283 275 263 245 244 249 246 237 236 240 239 237 234 237 241 244 246
345 346 346 348 354 359 0 1 2 3 6 9 8 2 331 292 302 303 296 289 287 292 294 288 278 277 283 285 281 274 265 263 258 245 233 233 238 240 236 237 240 241 244
348 347 348 353 358 1 2 4 7 9 12 16 19 18 17 358 312 305 305 300 296 292 296 296 289 286 286 285 283 283 284 284 279 261 237 230 236 237 239 240 243 242 240
348 348 349 354 359 1 1 2 4 7 8 12 13 10 6 358 340 326 319 312 304 295 295 296 293 291 290 289 289 291 293 294 293 290 275 244 239 243 240 241 240 241 240
Height
1506 1500 1493 1487 1480 1473 1466 1459 1452 1445 1438 1431 1424 1417 1410 1403 1396 1391 1387 1385 1384 1383 1384 1385 1386 1388 1391 1394 1398 1402 1406 1410 1415 1419 1423 1426 1430 1434 1438 1443 1446 1449 1452
1505 1498 1492 1485 1478 1471 1464 1457 1450 1443 1437 1430 1423 1417 1410 1403 1396 1390 1386 1383 1381 1380 1380 1381 1382 1384 1387 1390 1393 1397 1402 1406 1410 1415 1419 1423 1427 1431 1436 1440 1444 1447 1451
1503 1496 1490 1483 1476 1469 1462 1456 1449 1442 1435 1430 1424 1417 1411 1405 1398 1391 1386 1382 1380 1378 1378 1378 1379 1382 1384 1387 1390 1394 1398 1402 1406 1411 1415 1420 1424 1428 1433 1437 1441 1445 1449
1502 1494 1487 1480 1474 1468 1461 1454 1448 1442 1435 1429 1424 1418 1412 1406 1401 1394 1389 1384 1381 1378 1377 1377 1378 1380 1382 1384 1387 1391 1395 1399 1403 1407 1412 1416 1420 1425 1429 1433 1438 1442 1446
1500 1492 1485 1478 1472 1466 1459 1453 1447 1441 1435 1429 1424 1418 1413 1408 1403 1398 1392 1388 1384 1380 1378 1377 1378 1379 1380 1382 1385 1388 1391 1395 1399 1403 1408 1412 1416 1420 1425 1429 1433 1437 1442
1498 1491 1484 1477 1470 1464 1457 1452 1446 1440 1435 1429 1424 1419 1414 1409 1406 1400 1395 1391 1387 1384 1381 1380 1379 1379 1380 1381 1383 1385 1388 1391 1395 1399 1403 1407 1412 1416 1420 1424 1428 1432 1436
1497 1490 1483 1476 1469 1463 1457 1451 1445 1439 1434 1429 1424 1420 1415 1410 1407 1403 1398 1395 1391 1388 1385 1384 1383 1382 1381 1382 1382 1384 1386 1389 1392 1395 1399 1403 1408 1411 1415 1419 1422 1426 1430
1495 1489 1482 1475 1469 1462 1456 1450 1444 1439 1434 1430 1425 1421 1416 1412 1408 1405 1401 1398 1395 1393 1390 1388 1386 1385 1384 1384 1385 1386 1388 1389 1391 1394 1397 1400 1403 1407 1411 1414 1417 1421 1425
1494 1488 1482 1475 1469 1463 1456 1450 1445 1440 1435 1430 1426 1422 1417 1413 1409 1407 1403 1400 1398 1396 1394 1393 1391 1389 1388 1387 1388 1389 1390 1391 1392 1394 1396 1398 1400 1403 1406 1410 1413 1417 1420
1494 1488 1482 1476 1470 1463 1457 1451 1446 1441 1436 1432 1428 1423 1419 1414 1411 1408 1405 1402 1400 1399 1397 1396 1395 1394 1392 1390 1391 1392 1393 1393 1394 1396 1397 1399 1400 1402 1404 1406 1410 1414 1416
1494 1488 1482 1476 1469 1464 1458 1452 1447 1442 1437 1433 1429 1425 1420 1416 1412 1410 1407 1404 1402 1401 1399 1399 1398 1397 1396 1395 1394 1394 1395 1396 1397 1398 1399 1400 1402 1403 1404 1405 1408 1411 1414
1493 1487 1481 1475 1469 1463 1457 1452 1447 1442 1437 1433 1429 1425 1421 1418 1414 1411 1409 1406 1404 1403 1402 1401 1401 1400 1399 1398 1398 1398 1398 1398 1399 1401 1402 1403 1404 1405 1406 1407 1408 1411 1413
1490 1484 1478 1472 1467 1462 1456 1451 1446 1442 1438 1434 1430 1426 1422 1419 1415 1412 1409 1407 1406 1404 1404 1403 1402 1401 1401 1401 1401 1400 1400 1401 1402 1403 1404 1405 1406 1407 1408 1409 1410 1412 1414
1487 1480 1474 1468 1463 1459 1454 1450 1445 1441 1437 1434 1431 1427 1423 1420 1416 1413 1410 1407 1406 1405 1404 1404 1403 1403 1403 1403 1403 1403 1403 1403 1404 1405 1405 1407 1408 1409 1410 1411 1412 1413 1415
1483 1476 1470 1464 1459 1454 1450 1447 1443 1440 1437 1434 1431 1428 1424 1421 1418 1415 1412 1409 1406 1405 1404 1405 1405 1405 1405 1405 1405 1405 1405 1406 1406 1407 1407 1408 1409 1409 1410 1411 1412 1414 1415
1480 1473 1466 1461 1455 1450 1445 1441 1439 1437 1434 1431 1429 1427 1424 1422 1419 1416 1413 1411 1408 1407 1406 1406 1406 1407 1407 1407 1407 1407 1407 1407 1408 1408 1408 1409 1409 1410 1411 1412 1412 1413 1414
1478 1471 1464 1458 1452 1447 1442 1438 1433 1430 1429 1426 1425 1424 1423 1421 1419 1417 1414 1412 1410 1409 1408 1408 1408 1409 1409 1409 1409 1409 1409 1409 1409 1409 1410 1410 1410 1410 1411 1411 1412 1412 1413
1477 1469 1463 1457 1451 1445 1440 1435 1431 1427 1424 1422 1421 1420 1420 1420 1419 1418 1415 1413 1412 1411 1410 1410 1410 1410 1410 1410 1410 1410 1410 1410 1410 1410 1410 1410 1410 1410 1410 1410 1410 1411 1411
1476 1468 1462 1456 1450 1444 1438 1433 1428 1425 1422 1419 1418 1418 1418 1418 1419 1418 1417 1415 1414 1413 1412 1412 1411 1411 1410 1410 1410 1410 1410 1410 1410 1409 1409 1409 1409 1409 1409 1409 1409 1409 1409
1476 1469 1462 1455 1448 1441 1435 1430 1426 1422 1419 1417 1415 1415 1416 1417 1417 1418 1417 1417 1416 1415 1414 1413 1412 1411 1410 1410 1409 1408 1408 1408 1408 1407 1407 1407 1407 1407 1407 1407 1407 1407 1407
1477 1469 1462 1454 1447 1440 1434 1428 1424 1420 1417 1414 1413 1413 1414 1415 1416 1417 1417 1417 1417 1416 1415 1414 1413 1412 1410 1409 1408 1407 1406 1406 1405 1405 1405 1405 1404 1404 1404 1404 1404 1405 1405
1479 1471 1462 1455 1447 1440 1434 1428 1422 1418 1415 1413 1412 1411 1412 1413 1414 1416 1417 1417 1417 1417 1416 1414 1413 1412 1410 1408 1407 1406 1405 1404 1403 1402 1402 1402 1401 1401 1401 1401 1401 1402 1402
1480 1473 1464 1457 1449 1442 1435 1428 1423 1418 1415 1413 1412 1411 1412 1412 1414 1415 1416 1417 1417 1416 1415 1414 1412 1411 1409 1407 1406 1404 1403 1402 1401 1400 1399 1399 1398 1398 1398 1398 1398 1398 1398
1483 1475 1467 1459 1452 1445 1438 1431 1426 1421 1418 1415 1414 1413 1413 1413 1414 1415 1415 1416 1416 1415 1415 1413 1412 1410 1408 1406 1404 1402 1401 1399 1398 1397 1396 1395 1395 1394 1394 1394 1394 1393 1393
1485 1477 1469 1463 1457 1450 1443 1436 1431 1426 1422 1420 1418 1416 1415 1414 1414 1414 1415 1415 1415 1414 1413 1412 1410 1408 1406 1404 1402 1400 1398 1396 1395 1393 1392 1391 1389 1389 1388 1388 1387 1387 1387
1488 1480 1473 1467 1461 1454 1448 1442 1436 1432 1428 1424 1422 1419 1418 1416 1415 1415 1414 1414 1413 1412 1411 1410 1408 1406 1404 1402 1399 1397 1395 1393 1391 1389 1387 1385 1383 1382 1381 1380 1379 1379 1379